Date,TemperatureHighF,TemperatureAvgF,TemperatureLowF,DewpointHighF,DewpointAvgF,DewpointLowF,HumidityHigh,HumidityAvg,HumidityLow,PressureMaxIn,PressureMinIn,WindSpeedMaxMPH,WindSpeedAvgMPH,GustSpeedMaxMPH,PrecipitationSumIn
2013-9-1,85.3,74.7,69.9,73.2,70.6,67.5,96,88,64,29.82,29.72,3,0,11,0.00
2013-9-2,77.4,73.6,71.3,74.8,71.7,70.1,97,94,87,29.81,29.65,1,0,10,0.15
2013-9-3,82.2,72.7,60.9,71.1,66.9,57.3,98,83,59,29.75,29.63,2,0,9,0.00
2013-9-4,84.0,68.8,56.5,59.7,56.7,54.1,96,69,38,29.86,29.74,2,0,7,0.00
2013-9-5,72.1,62.4,50.5,61.7,51.9,41.5,96,72,36,30.09,29.80,2,0,10,0.06
2013-9-6,73.3,56.9,42.6,48.3,42.8,35.3,94,64,28,30.19,30.03,1,0,5,0.00
2013-9-7,83.4,63.9,46.4,59.9,51.2,44.3,94,68,31,30.03,29.79,1,0,6,0.01
2013-9-8,78.3,63.8,48.9,61.3,51.9,39.5,93,68,35,30.04,29.69,3,1,16,0.00
2013-9-9,74.6,57.4,42.5,49.6,44.2,38.6,92,65,28,30.18,30.04,2,0,11,0.00
2013-9-10,74.4,64.8,53.3,70.5,61.3,49.2,97,88,81,30.09,29.96,3,0,11,0.11
2013-9-11,97.1,81.0,67.3,76.4,70.8,64.8,98,75,43,30.00,29.87,3,0,13,0.01
2013-9-12,87.4,76.7,67.1,73.5,68.7,65.2,97,78,57,29.89,29.60,4,1,17,1.43
2013-9-13,81.4,67.6,58.4,71.1,64.1,53.6,99,89,58,29.70,29.51,3,0,14,0.20
2013-9-14,69.4,60.3,50.8,55.5,52.6,48.8,93,77,55,30.00,29.70,1,0,11,0.00
2013-9-15,75.3,59.0,46.5,54.3,49.2,45.4,98,74,38,30.10,29.99,0,0,6,0.00
2013-9-16,70.3,57.1,46.7,56.3,49.9,36.6,92,78,56,30.20,29.95,2,0,13,0.01
2013-9-17,67.6,51.0,38.0,46.6,39.2,35.0,92,67,35,30.38,30.21,2,0,10,0.00
2013-9-18,76.7,57.4,40.5,50.3,44.5,39.4,98,69,27,30.27,30.07,0,0,3,0.00
2013-9-19,82.2,62.3,45.5,57.4,50.8,44.2,97,71,29,30.07,29.97,0,0,5,0.00
2013-9-20,84.3,63.6,48.5,59.8,53.2,47.4,99,73,35,30.03,29.93,0,0,7,0.00
2013-9-21,74.4,63.3,51.9,64.9,58.2,50.6,99,85,62,29.96,29.66,4,1,16,0.00
2013-9-22,74.7,64.0,50.5,66.4,56.7,44.8,98,79,47,29.78,29.53,5,1,18,0.76
2013-9-23,66.4,52.9,44.1,45.9,41.8,38.9,86,68,43,29.95,29.78,2,0,18,0.00
2013-9-24,69.8,53.4,39.6,45.7,41.7,37.9,95,68,38,29.93,29.76,1,0,10,0.00
2013-9-25,71.1,55.2,44.5,53.8,47.1,42.3,94,76,48,29.92,29.82,0,0,6,0.00
2013-9-26,70.9,58.4,52.3,51.2,48.8,45.3,90,72,42,30.07,29.92,0,0,5,0.00
2013-9-27,66.3,58.0,50.5,54.7,51.4,49.4,96,79,61,30.20,30.07,1,0,5,0.00
2013-9-28,77.6,59.3,49.2,56.9,51.3,48.0,97,78,41,30.27,30.20,0,0,6,0.00
2013-9-29,72.1,54.3,46.2,54.3,45.9,-99.9,99,80,31,30.21,30.07,0,0,3,0.00
2013-9-30,74.7,52.8,45.8,52.6,40.4,-99.9,98,76,41,30.07,29.91,0,0,2,0.01